User: anonymous   Login
Location: Unspecified
(0.0000°N, 0.0000°E)
Time: 02:55:23
(UTC+00:00)
Language:

GALILEO-FM2 - Orbit

View from above orbital plane
View from above orbital plane
View from above satellite
View from above satellite

Ground track
Ground track

The orbit data is extracted from the following two-line orbital elements,

1 37847U 11060B   17231.98122873 -.00000028 +00000-0 +00000-0 0  9992
2 37847 055.8758 069.9243 0002948 333.9590 325.9903 01.70475845036176
Epoch (UTC): 19 August 2017 23:32:58
Eccentricity: 0.0002948
inclination: 55.8758°
perigee height: 23213 km
apogee height: 23230 km
right ascension of ascending node: 69.9243°
argument of perigee: 333.9590°
revolutions per day: 1.70475845
mean anomaly at epoch: 325.9903°
orbit number at epoch: 3617

The dashed part of the orbit path shows where the satellite is in the earth's shadow,  

DLR